Weather observations for the past three days for
Nebraska City, Nebraska City Municipal Airport
Imperial (Metric)
Date Time (cdt) Wind (mph) Vis. (mi.) Weather Sky Cond. Temperature (ºF) Relative Humidity Wind Chill (°F) Heat Index (°F) Pressure Precipitation (in)
Air Dwpt 6 hour altimeter (in) sea level (mb) 1 hr 3 hr 6 hr
Max. Min.
06 04:55 N 5 10.00 Fair CLR 43.2 29.7 59% 41 30.03 0.0
06 04:35 N 5 10.00 Fair CLR 43.7 29.5 57% 42 30.02 0.0
06 04:15 N 6 10.00 Fair CLR 43.9 29.3 57% 41 30.02 0.0
06 03:55 N 5 10.00 Fair CLR 44.2 30 57% 42 30.02 0.0
06 03:35 N 5 10.00 Fair CLR 44.8 29.8 56% 43 30.01 0.0
06 03:15 N 5 10.00 Fair CLR 44.8 30.6 58% 43 30.01 0.0
06 02:55 N 6 10.00 Partly Cloudy SCT120 45.5 30 55% 43 30.01 0.0
06 02:35 N 6 10.00 Partly Cloudy SCT120 45.5 31.1 57% 43 30 0.0
06 02:15 N 6 10.00 Mostly Cloudy BKN120 45.5 30.9 57% 43 30 0.0
06 01:55 N 6 10.00 Mostly Cloudy BKN120 46 30 54% 44 30 0.0
06 01:35 N 6 10.00 Overcast OVC120 46.4 30 53% 44 30 0.0
06 01:15 N 5 10.00 Mostly Cloudy BKN120 47.1 29.5 50% 46 30 0.0
06 00:55 N 5 10.00 Partly Cloudy SCT120 47.3 29.8 54.5 46.8 51% 46 29.99 0.0
06 00:35 N 6 10.00 Partly Cloudy SCT120 46.9 29.7 51% 45 29.99 0.0
06 00:10 N 3 10.00 Partly Cloudy SCT120 48.2 28.8 47% 29.99 0.0
05 23:55 N 3 10.00 Mostly Cloudy BKN120 48 29.8 49% 29.99 0.0
05 23:35 N 3 10.00 Mostly Cloudy BKN120 48.4 29.5 48% 29.99 0.0
05 23:15 N 5 10.00 Partly Cloudy SCT120 48.6 28.8 46% 47 29.98 0.0
05 22:55 N 6 10.00 Partly Cloudy SCT120 49.3 28.6 45% 47 29.97 0.0
05 22:35 N 7 10.00 Fair CLR 49.5 28.6 45% 47 29.97 0.0
05 22:15 N 7 10.00 Fair CLR 50 28.9 44% 48 29.96 0.0
05 21:55 N 6 10.00 Fair CLR 49.6 29.3 46% 48 29.96 0.0
05 21:35 N 5 10.00 Fair CLR 50.2 28.9 44% 29.95 0.0
05 21:15 N 8 10.00 Fair CLR 50.7 28 42% 29.94 0.0
05 20:55 N 8 10.00 Partly Cloudy SCT110 51.4 27.5 40% 29.93 0.0
05 20:35 N 9 10.00 Overcast OVC110 52.5 28 39% 29.92 0.0
05 20:15 N 12 G 22 10.00 Overcast OVC100 53.6 27.7 37% 29.92 0.0
05 19:55 N 7 10.00 Overcast OVC100 53.8 28.8 38% 29.9 0.0
05 19:35 N 9 10.00 Overcast OVC100 54.5 28.4 37% 29.9 0.0
05 19:15 N 9 10.00 Overcast OVC100 54.3 30.4 40% 29.89 0.0
05 18:55 N 7 10.00 Overcast OVC100 54.5 29.8 59.4 53.8 39% 29.89 0.0
05 18:35 N 9 10.00 Overcast OVC110 54.9 29.8 38% 29.9 0.0
05 18:15 N 14 10.00 Overcast OVC100 55.6 30.2 38% 29.89 0.0
05 17:55 N 12 10.00 Overcast OVC100 55.9 30 37% 29.89 0.0
05 17:35 N 15 G 20 10.00 Overcast OVC100 56.3 30.9 38% 29.89 0.0
05 17:15 N 12 10.00 Overcast OVC100 56.3 30.7 38% 29.89 0.0
05 16:55 N 10 10.00 Mostly Cloudy SCT070 BKN100 56.5 31.6 39% 29.89 0.0
05 16:35 N 10 G 18 10.00 Partly Cloudy SCT070 SCT120 56.5 31.1 38% 29.89 0.0
05 16:15 N 14 G 21 10.00 Partly Cloudy SCT120 57.2 31.1 37% 29.9 0.0
05 15:55 N 16 G 20 10.00 Partly Cloudy SCT070 SCT120 57.4 31.8 38% 29.9 0.0
05 15:35 N 7 10.00 Partly Cloudy SCT070 58.3 32.5 38% 29.9 0.0
05 15:15 N 14 10.00 Partly Cloudy SCT120 57.6 32.4 39% 29.9 0.0
05 14:55 N 10 G 21 10.00 Mostly Cloudy SCT100 BKN120 56.8 32.2 39% 29.92 0.0
05 14:35 N 12 10.00 Mostly Cloudy BKN100 55.8 32 41% 29.92 0.0
05 14:15 N 12 G 21 10.00 Partly Cloudy SCT090 SCT110 56.1 32 40% 29.92 0.0
05 13:55 N 13 G 18 10.00 Overcast OVC090 54.5 31.1 41% 29.93 0.0
05 13:35 N 9 G 17 10.00 Overcast OVC100 54.5 31.3 41% 29.93 0.0
05 13:15 N 8 10.00 Overcast OVC100 53.8 30.2 41% 29.94 0.0
05 12:55 N 12 G 17 10.00 Mostly Cloudy BKN100 54.5 30.4 56.5 47.5 40% 29.94 0.0
05 12:35 N 12 G 16 10.00 Partly Cloudy SCT090 SCT120 54.5 30.7 40% 29.94 0.0
05 12:15 N 12 10.00 Fair CLR 56.1 32 40% 29.94 0.0
05 11:55 N 9 10.00 Fair CLR 54.7 33.1 44% 29.94 0.0
05 11:35 N 6 10.00 Partly Cloudy SCT080 SCT090 SCT110 54.3 34.3 47% 29.93 0.0
05 11:15 N 6 10.00 Mostly Cloudy BKN110 54 34.9 49% 29.93 0.0
05 10:55 N 7 10.00 Overcast OVC110 53.4 35.8 51% 29.93 0.0
05 10:35 N 7 10.00 Overcast OVC110 52.9 37 55% 29.93 0.0
05 10:15 N 6 10.00 Overcast OVC110 52.2 37.9 59% 29.93 0.0
05 09:55 NW 6 10.00 Mostly Cloudy BKN110 52.2 38.7 60% 29.93 0.0
05 09:35 N 6 10.00 Overcast OVC100 52.2 42.4 70% 29.92 0.0
05 09:15 NW 5 10.00 Overcast OVC110 51.1 43.2 74% 29.91 0.0
05 08:55 W 3 10.00 Mostly Cloudy BKN110 50 43.5 79% 29.9 0.0
05 08:15 Calm 10.00 Overcast OVC110 48.2 44.4 87% 29.89 0.0
05 07:55 W 3 10.00 Overcast OVC110 47.7 45 90% 29.9 0.0
05 07:35 SW 3 10.00 Overcast OVC100 47.8 44.8 89% 29.89 0.0
05 07:15 Calm 10.00 Overcast OVC100 47.8 45.3 91% 29.86 0.0
05 06:55 Calm 10.00 Mostly Cloudy BKN100 47.7 43.9 52.5 47.3 87% 29.85 0.0 0.03
05 06:35 NE 3 10.00 Mostly Cloudy BKN100 47.3 44.1 89% 29.84 0.0
05 06:15 N 3 10.00 Overcast OVC100 47.5 44.1 88% 29.85 0.0
05 05:55 N 3 10.00 Overcast OVC110 47.5 45.9 94% 29.83 0.0
05 05:35 Calm 10.00 Overcast BKN090 OVC120 47.5 45.5 93% 29.84 0.0
05 04:55 Calm 10.00 Overcast SCT065 OVC080 48.2 43 82% 29.84 0.0
05 04:35 Calm 10.00 Overcast OVC080 47.7 44.8 90% 29.86 0.0
05 04:15 S 3 10.00 Light Rain OVC080 48.4 44.1 85% 29.85 0.0
05 03:55 S 3 10.00 Rain OVC080 48.4 43.3 83% 29.84 0.0 0.03
05 03:35 Calm 10.00 Light Rain OVC080 48.7 42.4 79% 29.84 0.0
05 03:15 NW 3 10.00 Overcast OVC080 48.7 41.7 77% 29.84 0.0
05 02:55 N 7 10.00 Overcast OVC080 48.4 41.5 77% 46 29.81 0.0
05 02:35 NE 5 10.00 Overcast OVC090 48.4 41.9 78% 47 29.8 0.0
05 02:15 NE 5 10.00 Overcast OVC090 48.2 41.7 78% 47 29.81 0.0
05 01:55 NE 7 10.00 Overcast OVC090 47.7 40.6 77% 45 29.8 0.0 0.03
05 01:35 NE 9 10.00 Mostly Cloudy SCT055 BKN090 BKN120 48.2 39.2 71% 45 29.81 0.0 0.03
05 01:15 N 12 G 21 10.00 Light Rain SCT075 BKN090 OVC110 48.9 39 69% 45 29.81 0.0 0.03
05 00:55 N 15 10.00 Light Rain BKN075 OVC090 53.1 34.7 72.5 53.1 50% 29.82 0.0
05 00:35 N 21 G 28 10.00 Overcast and Breezy OVC090 54.5 32.2 43% 29.8 0.0
05 00:15 N 21 G 29 10.00 Overcast and Breezy OVC100 55.2 32 41% 29.77 0.0
04 23:55 N 17 G 24 10.00 Overcast OVC100 55.6 32.4 41% 29.79 0.0
04 23:35 N 18 G 30 10.00 Overcast OVC110 55.9 32.7 42% 29.79 0.0
04 23:15 N 18 G 22 10.00 Mostly Cloudy BKN110 55.9 33.6 43% 29.79 0.0
04 22:55 NE 16 10.00 Fair CLR 56.3 34 43% 29.78 0.0
04 22:35 N 24 G 30 10.00 Partly Cloudy and Breezy SCT120 57.2 33.6 41% 29.77 0.0
04 22:15 NE 26 G 33 10.00 Fair and Windy CLR 58.1 34.7 42% 29.75 0.0
04 21:55 N 18 G 25 10.00 Fair CLR 59 34.9 41% 29.74 0.0
04 21:35 N 20 G 31 10.00 Fair CLR 59.7 34.2 38% 29.72 0.0
04 21:15 N 22 G 32 10.00 Fair and Breezy CLR 61.7 34.2 36% 29.7 0.0
04 20:55 N 22 G 32 10.00 Fair and Breezy CLR 63.3 34.7 35% 29.69 0.0
04 20:35 N 28 G 35 10.00 Fair and Windy CLR 65.1 35.1 33% 29.68 0.0
04 20:15 N 21 G 31 10.00 Fair and Breezy CLR 67.1 36 32% 29.66 0.0
04 19:55 N 25 G 31 10.00 Fair and Breezy CLR 68.2 36.1 31% 29.64 0.0
04 19:15 N 15 G 24 10.00 Fair CLR 70.9 37.6 30% 29.65 0.0
04 18:55 N 15 G 18 10.00 Fair CLR 72.7 38.3 83.3 72.7 29% 29.64 0.0
04 18:35 N 20 G 30 10.00 Fair CLR 73.8 39.7 29% 29.63 0.0
04 18:15 N 20 G 25 10.00 Fair CLR 76.6 42.4 30% 77 29.61 0.0
04 17:55 N 16 G 23 10.00 Fair CLR 76.3 44.6 32% 78 29.6 0.0
04 17:35 N 14 G 24 10.00 Fair CLR 78.1 43.3 29% 78 29.59 0.0
04 17:15 N 15 10.00 Fair CLR 79.9 44.2 28% 79 29.58 0.0
04 16:55 N 15 G 21 10.00 Fair CLR 81 45 28% 80 29.57 0.0
04 16:35 N 15 G 21 10.00 Fair CLR 81.3 45.7 29% 80 29.58 0.0
04 16:15 N 14 G 23 10.00 Fair CLR 81.5 44.8 27% 80 29.57 0.0
04 15:55 N 12 G 17 10.00 Fair CLR 81.5 43.9 27% 80 29.57 0.0
04 15:35 NW 10 10.00 Partly Cloudy SCT110 81.3 42.1 25% 80 29.57 0.0
04 15:15 N 6 G 16 10.00 Fair CLR 82.4 42.6 25% 80 29.58 0.0
04 14:55 NW 16 G 22 10.00 Partly Cloudy SCT110 82.9 43 24% 81 29.58 0.0
04 14:35 N 13 G 17 10.00 Partly Cloudy SCT110 82.8 42.1 24% 81 29.58 0.0
04 14:15 NW 12 G 21 10.00 Fair CLR 82.4 42.3 24% 80 29.58 0.0
04 13:55 N 10 10.00 Fair CLR 81 40.6 24% 79 29.58 0.0
04 13:35 N 9 G 17 10.00 Fair CLR 81 41 24% 79 29.59 0.0
04 13:15 N 12 G 17 10.00 Fair CLR 81.3 38.8 22% 80 29.59 0.0
04 12:55 N 12 G 17 10.00 Fair CLR 80.8 40.6 80.8 50.7 24% 79 29.6 0.0
04 12:35 NW 9 10.00 Fair CLR 79.3 42.8 27% 79 29.6 0.0
04 12:15 NW 8 G 17 10.00 Fair CLR 78.8 45 30% 79 29.6 0.0
04 11:55 NW 13 10.00 Fair CLR 77.7 46.8 34% 78 29.6 0.0
04 11:35 NW 8 10.00 Fair CLR 76.3 47.8 37% 78 29.61 0.0
04 11:15 NW 9 10.00 Fair CLR 74.3 48 39% 29.61 0.0
04 10:55 NW 13 10.00 Fair CLR 72.7 48.7 43% 29.61 0.0
04 10:35 NW 8 10.00 Fair CLR 70.9 48.2 45% 29.61 0.0
04 10:15 NW 10 10.00 Fair CLR 68.9 48.2 48% 29.61 0.0
04 09:55 NW 9 10.00 Fair CLR 67.1 47.5 50% 29.61 0.0
04 09:35 NW 9 10.00 Fair CLR 66.2 47.5 51% 29.61 0.0
04 09:15 W 7 10.00 Fair CLR 65.1 47.5 53% 29.61 0.0
04 08:55 Calm 10.00 Fair CLR 62.6 46 55% 29.61 0.0
04 08:35 W 3 10.00 Fair CLR 61.7 45.3 55% 29.6 0.0
04 08:15 Calm 10.00 Fair CLR 60.3 45.5 58% 29.6 0.0
04 07:55 Calm 10.00 Fair CLR 59.2 46.4 63% 29.6 0.0
04 07:35 S 7 10.00 Fair CLR 55.2 45.1 69% 29.59 0.0
04 07:15 S 8 10.00 Fair CLR 52.5 43 70% 29.59 0.0
04 06:55 S 5 10.00 Fair CLR 51.3 41.4 61.5 51.3 69% 29.59 0.0
04 06:35 Calm 10.00 Fair CLR 54.3 40.5 60% 29.6 0.0
04 06:15 Calm 10.00 Fair CLR 53.2 40.5 62% 29.6 0.0
04 05:55 Calm 10.00 Fair CLR 52 40.6 65% 29.6 0.0
04 05:35 S 3 10.00 Fair CLR 53.8 40.5 61% 29.6 0.0
04 05:15 S 7 10.00 Fair CLR 52.7 41.2 65% 29.6 0.0
04 04:55 S 9 10.00 Fair CLR 52.9 41.9 66% 29.6 0.0
04 04:35 S 8 10.00 Fair CLR 52.7 41.5 66% 29.62 0.0
04 04:15 S 7 10.00 Fair CLR 53.6 41 63% 29.63 0.0
04 03:55 S 8 10.00 Fair CLR 52 41.4 67% 29.64 0.0
04 03:35 S 7 10.00 Fair CLR 54.9 41 60% 29.64 0.0
04 03:15 S 7 10.00 Fair CLR 54.9 41 60% 29.66 0.0
04 02:55 S 7 10.00 Fair CLR 54.9 41.4 61% 29.67 0.0
04 02:35 S 7 10.00 Partly Cloudy SCT120 55 41.9 61% 29.68 0.0
04 02:15 S 7 10.00 Fair CLR 56.3 41.5 58% 29.69 0.0
04 01:55 S 7 10.00 Fair CLR 58.6 40.5 51% 29.71 0.0
04 01:35 S 6 10.00 Fair CLR 59.2 40.3 50% 29.72 0.0
04 01:15 S 8 10.00 Fair CLR 55.4 42.6 62% 29.73 0.0
04 00:55 SE 5 10.00 Fair CLR 61 39.7 72.9 59.9 46% 29.72 0.0
04 00:35 SE 6 10.00 Fair CLR 60.8 39.9 46% 29.73 0.0
04 00:15 SE 3 10.00 Fair CLR 63 39 41% 29.73 0.0
03 23:55 S 7 10.00 Fair CLR 63 40.1 43% 29.74 0.0
03 23:35 S 3 10.00 Fair CLR 61 40.6 47% 29.75 0.0
03 23:15 S 5 10.00 Fair CLR 60.8 39.6 46% 29.76 0.0
03 22:55 SE 5 10.00 Fair CLR 61.5 40.6 46% 29.76 0.0
03 22:35 S 5 10.00 Fair CLR 63.1 39.7 42% 29.77 0.0
03 22:15 E 3 10.00 Fair CLR 63.7 38.8 40% 29.77 0.0
03 21:55 Calm 10.00 Fair CLR 63.5 41 44% 29.78 0.0
03 21:35 Calm 10.00 Fair CLR 64.4 39.4 40% 29.78 0.0
03 21:15 NE 3 10.00 Fair CLR 64 40.1 42% 29.78 0.0
03 20:55 E 5 10.00 Fair CLR 65.3 39.9 40% 29.78 0.0
03 20:35 Calm 10.00 Fair CLR 65.5 41 41% 29.78 0.0
03 20:15 NE 3 10.00 Fair CLR 66.7 41.5 40% 29.78 0.0
03 19:55 NE 3 10.00 Fair CLR 68.7 40.8 36% 29.79 0.0
03 19:35 NE 3 10.00 Fair CLR 70.9 40.5 33% 29.79 0.0
03 19:15 Calm 10.00 Fair CLR 72.7 41.7 33% 29.79 0.0
03 18:55 Calm 10.00 Fair CLR 72.1 40.8 74.8 71.6 32% 29.8 0.0
03 18:35 Calm 10.00 Fair CLR 72.5 39 30% 29.8 0.0
03 18:15 N 6 10.00 Fair CLR 73 39.9 30% 29.81 0.0
03 17:35 N 3 10.00 Fair CLR 73.9 40.8 30% 29.81 0.0
03 17:15 Calm 10.00 Fair CLR 74.5 38.7 27% 29.81 0.0
03 16:55 E 3 10.00 Fair CLR 73.6 39.9 30% 29.82 0.0
03 16:35 NW 7 10.00 Fair CLR 74.7 42.1 31% 29.82 0.0
03 16:15 NW 7 10.00 Fair CLR 73.9 41 31% 29.83 0.0
03 15:55 N 8 10.00 Fair CLR 73.8 41.2 31% 29.84 0.0
03 15:35 NE 6 10.00 Fair CLR 73.4 41.2 31% 29.84 0.0
03 15:15 NE 8 10.00 Fair CLR 72.9 38.8 29% 29.85 0.0
03 14:55 N 12 10.00 Fair CLR 73.4 39.7 30% 29.86 0.0
03 14:35 N 12 G 18 10.00 Fair CLR 73.2 40.5 31% 29.86 0.0
03 14:15 N 10 G 17 10.00 Fair CLR 72 39.4 31% 29.86 0.0
03 13:55 N 12 G 17 10.00 Fair CLR 72 39.6 31% 29.86 0.0
03 13:35 N 13 10.00 Fair CLR 73 42.6 34% 29.86 0.0
03 13:15 N 8 10.00 Fair CLR 72.7 42.3 34% 29.87 0.0
03 12:55 N 10 10.00 Fair CLR 71.1 42.8 71.2 54.1 36% 29.88 0.0
03 12:35 N 10 10.00 Fair CLR 71.1 41.9 35% 29.89 0.0
03 12:15 NW 8 10.00 Fair CLR 70.5 43.9 38% 29.89 0.0
03 11:55 N 9 10.00 Fair CLR 70 41.7 36% 29.89 0.0
03 11:35 NW 12 10.00 Fair CLR 70.2 43.5 38% 29.89 0.0
03 11:15 W 12 10.00 Fair CLR 68.7 44.1 41% 29.9 0.0
03 10:55 NW 10 G 16 10.00 Fair CLR 67.5 43.7 42% 29.9 0.0
03 10:35 NW 14 10.00 Fair CLR 66 42.1 42% 29.89 0.0
03 10:15 NW 12 G 17 10.00 Fair CLR 65.3 42.8 44% 29.89 0.0
03 09:55 W 13 10.00 Fair CLR 63.7 43.5 48% 29.89 0.0
03 09:35 W 16 10.00 Fair CLR 62.1 42.3 48% 29.88 0.0
03 09:15 W 18 10.00 Fair CLR 60.3 41.2 50% 29.88 0.0
03 08:55 W 16 G 23 10.00 Fair CLR 59.2 41.7 53% 29.88 0.0
03 08:35 W 16 G 23 10.00 Fair CLR 57.7 40.8 53% 29.88 0.0
03 08:15 W 14 10.00 Fair CLR 56.7 40.3 54% 29.89 0.0
03 07:55 W 15 G 24 10.00 Fair CLR 55.6 39.9 56% 29.89 0.0
03 07:35 SW 22 G 25 10.00 Fair and Breezy CLR 54.7 39.2 56% 29.88 0.0
03 07:15 W 20 G 25 10.00 Fair CLR 55 39.2 55% 29.87 0.0
03 06:55 W 20 G 26 10.00 Fair CLR 54.5 37.9 54.7 51.1 54% 29.87 0.0
03 06:35 W 21 10.00 Partly Cloudy and Breezy SCT120 54.5 37.4 53% 29.87 0.0
03 06:15 SW 18 10.00 Partly Cloudy SCT120 54.5 36.5 51% 29.84 0.0
03 05:55 SW 18 G 25 10.00 Fair CLR 54 35.2 49% 29.85 0.0
03 05:35 SW 22 10.00 Fair and Breezy CLR 54 34.7 48% 29.85 0.0
Date Time (cdt) Wind (mph) Vis. (mi.) Weather Sky Cond. Air Dwpt Max. Min. Relative Humidity Wind Chill (°F) Heat Index (°F) altimeter (in) sea level (mb) 1 hr 3 hr 6 hr
6 hour
Temperature (ºF) Pressure Precipitation (in)